"Pseudo-MPEC" for A11izBQ

Created 2025 Feb 12 17:31:02 UT using Find_Orb

Click here for an explanation of pseudo-MPECs

 
 Astrometry: 
     A11izBQ* C2025 02 02c?K.;6Rqi218E-\I#8`pAstrometryx4GLL/EdGredacted;lwdfT05
     A11izBQ  C2025 02 02Hs[8%R[7=sclick6JV`'nFRl4ys;.Y/dWt*YGerLq-4'.9]ntQnLT05
     A11izBQ  C2025 02 02x]KKx3C1Cahql1ND)[hereqforbKdys_Qh1)%7T#JQhm8W^3\p;[T05
     A11izBQ  C2025 02 02Svw$9Hi8BNCd9iPZF!e4explanationH$EgX#fM^?$\x=*g/Lo-6T05

Station data:
(T05) ATLAS-HKO, Haleakala  (N20.707551 W156.257010)  US/Hawaii.  Observers
   L. Denneau, A. Heinze, H. Weiland, J. Tonry, H. Flewelling, A.
   Fitzsimmons, D. Young, B. Stalder. Measurers L. Denneau, A. Heinze, J.
   Tonry. 0.5-m f/2.0 Schmidt + CCD.

Orbital elements:  A11izBQ
   Perigee 2025 Feb 1.94835 +/- 0.0733 TT = 22:45:37 (JD 2460708.44835)
Epoch 2025 Feb  2.0 TT = JDT 2460708.5                           AutoNEOCP
M  19.85452327 +/- 25               (J2000 equator)
n 384.40451957 +/- 46.6             Peri.  158.56895 +/- 2.5
a 40433.7960 +/- 3269               Node   154.53079 +/- 1.3
e   0.7138404 +/- 0.0394            Incl.    4.71025 +/- 0.22
P1348.554m/0.936d          H 32.86  G  0.15   U 15.3
q 11570.5178 +/- 2526    Q 69297.0742 +/- 4023
From 4 observations 2025 Feb. 2 (31.5 min); mean residual 0".68
Residuals in arcseconds: 
250202 T05  .75+  .16+    250202 T05  .90+  .20+    
250202 T05  1.5-  .32-    250202 T05  .18-  .04-    

Ephemerides (geocentric):
Date (UTC) HH   RA             Dec           delta  r     elong  mag " sig PA
---- --------  ------------   ------------  ------ ------ -----  --- --------
2025 02 12 18  09 07 58.907   -01 20 38.87   69026 .98769 162.5 17.1  44d  85
2025 02 12 19  09 23 32.165   -01 01 33.44   68012 .98770 164.5 17.0  40d  85
2025 02 12 20  09 39 44.895   -00 41 20.93   66205 .98770 165.7 16.9  38d  85
2025 02 12 21  09 57 05.216   -00 19 30.05   63572 .98769 165.9 16.8  38d  85
2025 02 12 22  10 16 11.600   +00 04 42.42   60058 .98767 164.6 16.7  38d  85
2025 02 12 23  10 38 02.206   +00 32 20.32   55582 .98765 161.7 16.6  39d  85
2025 02 13 00  11 04 14.705   +01 05 05.01   50027 .98761 157.0 16.5  42d  85
2025 02 13 01  11 37 55.290   +01 45 50.58   43221 .98756 150.0 16.4  46d  85
2025 02 13 02  12 26 06.873   +02 39 57.44   34911 .98749 139.1 16.3  55d  86
2025 02 13 03  13 49 58.425   +03 55 58.48   24796 .98741 119.2 16.1  72d  87
2025 02 13 04  17 29 11.995   +04 34 08.56   13752 .98730  66.3 17.0 123d  92
2025 02 13 05  01 14 10.761   -03 26 44.57   15217 .98728  52.1 18?? 125d  93
2025 02 13 06  04 17 20.208   -04 49 49.68   26433 .98737  96.2 17.0  84d  90
2025 02 13 07  05 33 22.293   -04 32 03.41   36266 .98746 114.6 17.1  70d  88
2025 02 13 08  06 18 49.083   -04 07 02.06   44331 .98754 125.4 17.2  64d  87
2025 02 13 09  06 51 12.427   -03 43 12.76   50936 .98761 133.1 17.3  62d  87
2025 02 13 10  07 16 42.507   -03 21 17.11   56319 .98767 139.0 17.3  64d  86
2025 02 13 11  07 38 07.607   -03 00 55.16   60644 .98772 143.9 17.3  71d  86
2025 02 13 12  07 56 57.932   -02 41 40.94   64020 .98776 148.2 17.3  88d  86
2025 02 13 13  08 14 08.093   -02 23 11.03   66525 .98780 151.9 17.3 136d  86
2025 02 13 14  08 30 14.738   -02 05 04.96   68210 .98783 155.3 17.3 117d  85
2025 02 13 15  08 45 45.042   -01 47 04.03   69106 .98785 158.4 17.2  73d  85
2025 02 13 16  09 01 01.390   -01 28 49.99   69230 .98787 161.1 17.1  57d  85
2025 02 13 17  09 16 24.451   -01 10 03.48   68584 .98788 163.5 17.0  49d  85
2025 02 13 18  09 32 15.724   -00 50 22.26   67158 .98788 165.4 16.9  45d  85
2025 02 13 19  09 49 00.346   -00 29 18.75   64923 .98788 166.3 16.8  43d  85
2025 02 13 20  10 07 11.068   -00 06 16.13   61836 .98786 166.0 16.7  42d  85
2025 02 13 21  10 27 35.114   +00 19 38.21   57829 .98784 164.1 16.6  42d  85
2025 02 13 22  10 51 27.808   +00 49 44.88   52805 .98781 160.3 16.6  44d  85
2025 02 13 23  11 21 03.806   +01 26 17.08   46620 .98777 154.5 16.5  47d  85
2025 02 14 00  12 01 02.120   +02 13 12.68   39062 .98771 145.8 16.3  53d  86
2025 02 14 01  13 03 22.833   +03 17 46.46   29839 .98763 131.3 16.2  65d  86
2025 02 14 02  15 12 57.329   +04 41 05.63   18833 .98753 100.1 16.1  94d  89
2025 02 14 03  21 49 49.407   +00 28 24.95   11724 .98744  13.6 26?? 171d  95
2025 02 14 04  03 14 55.265   -04 41 30.80   21122 .98750  80.3 17.2  94d  91
2025 02 14 05  05 03 18.423   -04 43 14.65   31826 .98760 106.5 17.0  71d  89
2025 02 14 06  05 59 41.223   -04 19 06.13   40692 .98768 120.1 17.2  62d  88
2025 02 14 07  06 37 09.797   -03 54 17.82   47955 .98775 129.0 17.3  57d  87
2025 02 14 08  07 05 28.433   -03 31 21.64   53894 .98782 135.7 17.3  57d  87
2025 02 14 09  07 28 36.112   -03 10 12.14   58705 .98787 141.1 17.4  59d  86
2025 02 14 10  07 48 32.179   -02 50 23.52   62521 .98792 145.6 17.4  64d  86
2025 02 14 11  08 06 25.063   -02 31 30.61   65432 .98796 149.6 17.3  77d  86
2025 02 14 12  08 22 58.547   -02 13 11.46   67501 .98800 153.2 17.3 110d  85
2025 02 14 13  08 38 43.583   -01 55 06.57   68768 .98802 156.5 17.3 151d  85
2025 02 14 14  08 54 04.400   -01 36 57.58   69258 .98804 159.5 17.2  86d  85
2025 02 14 15  09 09 22.165   -01 18 25.77   68979 .98806 162.2 17.1  64d  85
2025 02 14 16  09 24 57.686   -00 59 10.49   67925 .98806 164.5 17.0  55d  85
2025 02 14 17  09 41 13.990   -00 38 47.02   66078 .98806 166.2 16.9  49d  85